Location: Arcusa
(42.3167°N, 0.0833°W)
Time: 16:55:14
(UTC+00:00)

Meteor 1-11 - Pass Details

Date: 25 January 2020
Orbit: 840 x 887 km, 81.2° (Epoch: 20 February)

Event Time Altitude Azimuth Distance (km) Brightness Sun altitude
Rises 05:50:06 0° 348° (NNW) 3,411 7.1 -16.8°
Reaches altitude 10° 05:52:31 10° 346° (NNW) 2,475 6.4 -16.3°
Maximum altitude 05:58:06 74° 263° (W) 887 4.1 -15.3°
Drops below altitude 10° 06:03:43 10° 179° (S) 2,485 6.8 -14.3°
Sets 06:06:09 0° 178° (S) 3,425 7.6 -13.9°
